GW1525 Weather Reports


time (UTC)temp
C
wind
direction
speed
KPH
gust
KPH
rain 1hr
cm
rain 24hr
cm
rain mn
cm
humidity
%
barometer
mb
20260906103031 17 82 3.2 12.9 0.00 0.00 0.00 80 1025.1
20260906100031 16 96 1.6 9.7 0.00 0.00 0.00 81 1025.5
20260906094532 16 54 0.0 9.7 0.00 0.00 0.00 80 1025.4
20260906093026 16 328 1.6 12.9 0.00 0.00 0.00 80 1025.4
20260906090033 15 21 0.0 0.0 0.00 0.00 0.00 80 1025.5
20260906084527 15 64 0.0 0.0 0.00 0.00 0.00 81 1025.2
20260906081533 16 267 4.8 11.3 0.00 0.00 0.00 80 1024.9
20260906080033 16 9 4.8 9.7 0.00 0.00 0.00 84 1025.1
20260906073035 14 234 1.6 6.4 0.00 0.00 0.00 87 1025.0
20260906071529 13 21 1.6 9.7 0.00 0.00 0.00 94 1025.0
20260906064533 13 61 0.0 3.2 0.00 0.00 0.00 94 1024.9
20260906063031 13 85 0.0 9.7 0.00 0.00 0.00 94 1024.8
20260906060030 -17 0.0 0.0 0.00 0.00 0.00 1024.7
20260906054528 -17 0.0 0.0 0.00 0.00 0.00 1024.6
20260906051532 -17 0.0 0.0 0.00 0.00 0.00 1024.4
20260906050033 2 231 0.0 0.0 0.00 0.00 0.00 91 1024.3
20260906044523 2 232 0.0 0.0 0.00 0.00 0.00 91 1024.3
20260906041524 2 230 0.0 0.0 0.00 0.00 0.00 92 1024.2
20260906034525 3 232 0.0 0.0 0.00 0.00 0.00 91 1024.0
20260906031542 3 231 0.0 0.0 0.00 0.00 0.00 92 1023.9
20260906030023 4 232 0.0 0.0 0.00 0.00 0.00 92 1023.7
20260906023025 4 231 0.0 0.0 0.00 0.00 0.00 92 1023.9
20260906020022 5 230 0.0 0.0 0.00 0.00 0.00 93 1023.5
20260906014525 4 230 0.0 0.0 0.00 0.00 0.00 92 1023.5
20260906011523 3 230 0.0 0.0 0.00 0.00 0.00 91 1023.3
20260906004526 4 231 0.0 0.0 0.00 0.00 0.00 91 1023.2
20260906001525 5 229 0.0 0.0 0.00 0.00 0.00 91 1023.1
20260905234527 5 229 0.0 0.0 0.00 0.00 0.00 92 1023.0
20260905233025 5 227 0.0 0.0 0.00 0.00 0.00 92 1022.9
20260905230028 5 229 0.0 0.0 0.00 0.00 0.00 91 1022.7
20260905223024 5 228 0.0 0.0 0.00 0.00 0.00 90 1022.5
20260905221458 5 228 0.0 0.0 0.00 0.00 0.00 90 1022.4
20260905214545 6 226 0.0 0.0 0.00 0.00 0.00 90 1022.0
20260905211543 6 219 0.0 0.0 0.00 0.00 0.00 89 1021.8
20260905210032 7 223 0.0 0.0 0.00 0.00 0.00 90 1021.6
20260905203042 7 221 0.0 0.0 0.00 0.00 0.00 89 1021.7
20260905200055 8 221 0.0 0.0 0.00 0.00 0.00 87 1021.4
20260905194548 8 220 0.0 0.0 0.00 0.00 0.00 84 1021.3
20260905193040 9 221 0.0 0.0 0.00 0.00 0.00 84 1021.0
20260905190051 11 229 0.0 0.0 0.00 0.00 0.00 83 1020.4
20260905183042 13 360 0.0 0.0 0.00 0.00 0.00 85 1020.0
20260905180042 14 204 0.0 0.0 0.00 0.00 0.00 85 1019.5
20260905174540 15 211 0.0 0.0 0.00 0.00 0.00 85 1019.3
20260905171540 16 210 0.0 0.0 0.00 0.00 0.00 82 1018.9
20260905170038 16 213 0.0 0.0 0.00 0.00 0.00 81 1018.7
20260905163041 17 211 0.0 0.0 0.00 0.00 0.00 79 1018.4
20260905160046 20 214 1.6 8.0 0.00 0.00 0.00 74 1018.1
20260905153039 20 108 1.6 9.7 0.00 0.00 0.00 72 1017.9
20260905151536 20 252 3.2 11.3 0.00 0.00 0.00 75 1017.8
20260905144544 21 118 0.0 8.0 0.00 0.00 0.00 69 1017.9
20260905141553 21 101 0.0 8.0 0.00 0.00 0.00 61 1017.9
20260905140038 21 147 0.0 6.4 0.00 0.00 0.00 59 1018.1
20260905134534 21 10 1.6 6.4 0.00 0.00 0.00 55 1018.2
20260905131555 21 88 1.6 9.7 0.00 0.00 0.00 70 1018.3
20260905124542 21 113 1.6 4.8 0.00 0.00 0.00 55 1018.4
20260905121546 22 119 1.6 11.3 0.00 0.00 0.00 43 1018.6
20260905114547 22 256 4.8 11.3 0.00 0.00 0.00 47 1018.6
20260905113041 22 42 4.8 11.3 0.00 0.00 0.00 45 1018.6
20260905110043 21 26 1.6 11.3 0.00 0.00 0.00 51 1018.6